,,,PA_Meas_PMT16A,,PR_Meas_QMR101_102,,RH_Meas_QMH101,,SR_Meas_QMS101,,TA_Meas_QMH101,,GenWind,,GenWind,
date,time,status,PA,status,PR,status,RH,status,SR,status,TA,status,DirAvg,status,SpdAvg,
2014-10-16, 00:00:04,VALID,1011.02,VALID,0,INVALID,133.695,VALID,0.112112,VALID,22.8952,VALID,72,VALID,0,
2014-10-16, 00:01:04,VALID,1011,VALID,0,INVALID,133.596,VALID,0.112112,VALID,22.8952,VALID,72,VALID,0,
2014-10-16, 00:02:04,VALID,1010.98,VALID,0,INVALID,133.519,VALID,0.112112,VALID,22.8952,VALID,72,VALID,0,
2014-10-16, 00:03:04,VALID,1010.95,VALID,0,INVALID,133.451,VALID,0,VALID,22.9147,VALID,72,VALID,0,
2014-10-16, 00:04:04,VALID,1010.92,VALID,0,INVALID,133.382,VALID,0,VALID,22.9147,VALID,72,VALID,0,
2014-10-16, 00:05:04,VALID,1010.9,VALID,0,INVALID,133.313,VALID,0.112112,VALID,22.8935,VALID,72,VALID,0,
2014-10-16, 00:06:04,VALID,1010.88,VALID,0,INVALID,133.191,VALID,0,VALID,22.9342,VALID,72,VALID,0,
2014-10-16, 00:07:04,VALID,1010.88,VALID,0,INVALID,133.146,VALID,0.112112,VALID,22.9342,VALID,72,VALID,0,
2014-10-16, 00:08:04,VALID,1010.86,VALID,0,INVALID,133.047,VALID,0,VALID,22.9129,VALID,72,VALID,0,
2014-10-16, 00:09:04,VALID,1010.89,VALID,0,INVALID,133.001,VALID,0.112112,VALID,22.9342,VALID,72,VALID,0,
2014-10-16, 00:10:04,VALID,1010.89,VALID,0,INVALID,132.978,VALID,0,VALID,22.9342,VALID,72,VALID,0,
2014-10-16, 00:11:04,VALID,1010.89,VALID,0,INVALID,132.963,VALID,0,VALID,22.9342,VALID,72,VALID,0,
2014-10-16, 00:12:04,VALID,1010.9,VALID,0,INVALID,133.008,VALID,0.112112,VALID,22.8935,VALID,72,VALID,0,
2014-10-16, 00:13:04,VALID,1010.91,VALID,0,INVALID,133.115,VALID,0,VALID,22.8952,VALID,72,VALID,0,
2014-10-16, 00:14:04,VALID,1010.89,VALID,0,INVALID,133.153,VALID,0,VALID,22.8757,VALID,72,VALID,0,
2014-10-16, 00:15:04,VALID,1010.9,VALID,0,INVALID,133.062,VALID,0,VALID,22.8562,VALID,72,VALID,0,
2014-10-16, 00:16:04,VALID,1010.85,VALID,0,INVALID,133.1,VALID,0,VALID,22.8562,VALID,72,VALID,0,
2014-10-16, 00:17:04,VALID,1010.86,VALID,0,INVALID,133.008,VALID,0,VALID,22.8757,VALID,72,VALID,0,
2014-10-16, 00:18:04,VALID,1010.84,VALID,0,INVALID,132.925,VALID,0,VALID,22.8562,VALID,72,VALID,0,
2014-10-16, 00:19:04,VALID,1010.82,VALID,0,INVALID,132.917,VALID,0,VALID,22.8562,VALID,72,VALID,0,
2014-10-16, 00:20:04,VALID,1010.82,VALID,0,INVALID,132.902,VALID,0,VALID,22.8155,VALID,72,VALID,0,
2014-10-16, 00:21:04,VALID,1010.8,VALID,0,INVALID,132.894,VALID,0,VALID,22.8368,VALID,72,VALID,0,
2014-10-16, 00:22:04,VALID,1010.79,VALID,0,INVALID,132.879,VALID,0,VALID,22.8173,VALID,72,VALID,0,
2014-10-16, 00:23:04,VALID,1010.76,VALID,0,INVALID,132.772,VALID,0,VALID,22.8368,VALID,72,VALID,0,
2014-10-16, 00:24:04,VALID,1010.73,VALID,0,INVALID,132.787,VALID,0,VALID,22.8173,VALID,72,VALID,0,
2014-10-16, 00:25:04,VALID,1010.75,VALID,0,INVALID,132.757,VALID,0,VALID,22.8173,VALID,72,VALID,0,
2014-10-16, 00:26:04,VALID,1010.75,VALID,0,INVALID,132.749,VALID,0,VALID,22.7978,VALID,72,VALID,0,
2014-10-16, 00:27:04,VALID,1010.68,VALID,0,INVALID,132.772,VALID,0,VALID,22.7978,VALID,72,VALID,0,
2014-10-16, 00:28:04,VALID,1010.66,VALID,0,INVALID,132.749,VALID,0,VALID,22.7783,VALID,72,VALID,0,
2014-10-16, 00:29:04,VALID,1010.62,VALID,0,INVALID,132.703,VALID,0,VALID,22.7783,VALID,72,VALID,0,
2014-10-16, 00:30:04,VALID,1010.58,VALID,0,INVALID,132.673,VALID,0,VALID,22.7978,VALID,72,VALID,0,
2014-10-16, 00:31:04,VALID,1010.56,VALID,0,INVALID,132.642,VALID,0,VALID,22.7783,VALID,72,VALID,0,
2014-10-16, 00:32:04,VALID,1010.57,VALID,0,INVALID,132.581,VALID,0,VALID,22.7783,VALID,72,VALID,0,
2014-10-16, 00:33:04,VALID,1010.53,VALID,0,INVALID,132.497,VALID,0,VALID,22.7783,VALID,72,VALID,0,
2014-10-16, 00:34:04,VALID,1010.56,VALID,0,INVALID,132.475,VALID,0,VALID,22.7783,VALID,72,VALID,0,
2014-10-16, 00:35:04,VALID,1010.55,VALID,0,INVALID,132.436,VALID,0,VALID,22.7783,VALID,72,VALID,0,
2014-10-16, 00:36:04,VALID,1010.56,VALID,0,INVALID,132.406,VALID,0,VALID,22.7588,VALID,72,VALID,0,
2014-10-16, 00:37:04,VALID,1010.55,VALID,0,INVALID,132.421,VALID,0,VALID,22.7394,VALID,72,VALID,0,
2014-10-16, 00:38:04,VALID,1010.58,VALID,0,INVALID,132.345,VALID,0,VALID,22.7588,VALID,72,VALID,0,
2014-10-16, 00:39:04,VALID,1010.57,VALID,0,INVALID,132.284,VALID,0,VALID,22.7588,VALID,72,VALID,0,
2014-10-16, 00:40:04,VALID,1010.62,VALID,0,INVALID,132.2,VALID,0,VALID,22.7588,VALID,72,VALID,0,
2014-10-16, 00:41:04,VALID,1010.62,VALID,0,INVALID,132.109,VALID,0,VALID,22.7588,VALID,72,VALID,0,
2014-10-16, 00:42:04,VALID,1010.59,VALID,0,INVALID,132.017,VALID,0,VALID,22.7783,VALID,72,VALID,0,
2014-10-16, 00:43:04,VALID,1010.61,VALID,0,INVALID,131.918,VALID,0,VALID,22.7783,VALID,72,VALID,0,
2014-10-16, 00:44:04,VALID,1010.63,VALID,0,INVALID,131.895,VALID,0,VALID,22.7783,VALID,72,VALID,0,
2014-10-16, 00:45:04,VALID,1010.63,VALID,0,INVALID,131.788,VALID,0,VALID,22.7783,VALID,72,VALID,0,
2014-10-16, 00:46:04,VALID,1010.63,VALID,0,INVALID,131.735,VALID,0,VALID,22.7978,VALID,72,VALID,0,
2014-10-16, 00:47:04,VALID,1010.64,VALID,0,INVALID,131.598,VALID,0,VALID,22.8173,VALID,72,VALID,0,
2014-10-16, 00:48:04,VALID,1010.62,VALID,0,INVALID,131.514,VALID,0,VALID,22.8368,VALID,72,VALID,0,
2014-10-16, 00:49:04,VALID,1010.63,VALID,0,INVALID,131.468,VALID,0,VALID,22.858,VALID,72,VALID,0,
2014-10-16, 00:50:04,VALID,1010.62,VALID,0,INVALID,131.407,VALID,0,VALID,22.8368,VALID,72,VALID,0,
2014-10-16, 00:51:04,VALID,1010.62,VALID,0,INVALID,131.308,VALID,0,VALID,22.8368,VALID,72,VALID,0,
2014-10-16, 00:52:04,VALID,1010.62,VALID,0,INVALID,131.293,VALID,0,VALID,22.8368,VALID,72,VALID,0,
2014-10-16, 00:53:04,VALID,1010.58,VALID,0,INVALID,131.254,VALID,0,VALID,22.835,VALID,72,VALID,0,
2014-10-16, 00:54:04,VALID,1010.59,VALID,0,INVALID,131.239,VALID,0,VALID,22.8562,VALID,72,VALID,0,
2014-10-16, 00:55:04,VALID,1010.56,VALID,0,INVALID,131.201,VALID,0,VALID,22.8562,VALID,72,VALID,0,
2014-10-16, 00:56:04,VALID,1010.51,VALID,0,INVALID,131.125,VALID,0,VALID,22.8562,VALID,72,VALID,0,
2014-10-16, 00:57:04,VALID,1010.5,VALID,0,INVALID,131.132,VALID,0.112112,VALID,22.8757,VALID,72,VALID,0,
2014-10-16, 00:58:04,VALID,1010.49,VALID,0,INVALID,131.148,VALID,0,VALID,22.8562,VALID,72,VALID,0,
2014-10-16, 00:59:04,VALID,1010.45,VALID,0,INVALID,131.132,VALID,0.112112,VALID,22.8562,VALID,72,VALID,0,
2014-10-16, 01:00:04,VALID,1010.44,VALID,0,INVALID,131.071,VALID,0,VALID,22.835,VALID,72,VALID,0,
2014-10-16, 01:01:04,VALID,1010.44,VALID,0,INVALID,130.98,VALID,0,VALID,22.8757,VALID,72,VALID,0,
2014-10-16, 01:02:04,VALID,1010.44,VALID,0,INVALID,130.972,VALID,0,VALID,22.8757,VALID,72,VALID,0,
2014-10-16, 01:03:04,VALID,1010.43,VALID,0,INVALID,131.026,VALID,0.112112,VALID,22.8562,VALID,72,VALID,0,
2014-10-16, 01:04:04,VALID,1010.43,VALID,0,INVALID,131.132,VALID,0,VALID,22.8562,VALID,72,VALID,0,
2014-10-16, 01:05:04,VALID,1010.42,VALID,0,INVALID,131.14,VALID,0.112112,VALID,22.8368,VALID,72,VALID,0,
2014-10-16, 01:06:04,VALID,1010.4,VALID,0,INVALID,131.163,VALID,0,VALID,22.8173,VALID,72,VALID,0,
2014-10-16, 01:07:04,VALID,1010.35,VALID,0,INVALID,131.247,VALID,0,VALID,22.8173,VALID,72,VALID,0,
2014-10-16, 01:08:04,VALID,1010.33,VALID,0,INVALID,131.323,VALID,0,VALID,22.7978,VALID,72,VALID,0,
2014-10-16, 01:09:04,VALID,1010.32,VALID,0,INVALID,131.399,VALID,0,VALID,22.7783,VALID,72,VALID,0,
2014-10-16, 01:10:04,VALID,1010.31,VALID,0,INVALID,131.453,VALID,0,VALID,22.7588,VALID,72,VALID,0,
2014-10-16, 01:11:04,VALID,1010.33,VALID,0,INVALID,131.537,VALID,0,VALID,22.7394,VALID,72,VALID,0,
2014-10-16, 01:12:04,VALID,1010.31,VALID,0,INVALID,131.605,VALID,0,VALID,22.7004,VALID,72,VALID,0,
2014-10-16, 01:13:04,VALID,1010.34,VALID,0,INVALID,131.613,VALID,0,VALID,22.7004,VALID,72,VALID,0,
2014-10-16, 01:14:04,VALID,1010.34,VALID,0,INVALID,131.575,VALID,0,VALID,22.6809,VALID,72,VALID,0,
2014-10-16, 01:15:04,VALID,1010.33,VALID,0,INVALID,131.682,VALID,0,VALID,22.6809,VALID,72,VALID,0,
2014-10-16, 01:16:04,VALID,1010.34,VALID,0,INVALID,131.582,VALID,0,VALID,22.6809,VALID,72,VALID,0,
2014-10-16, 01:17:04,VALID,1010.3,VALID,0,INVALID,131.567,VALID,0,VALID,22.6614,VALID,72,VALID,0,
2014-10-16, 01:18:04,VALID,1010.27,VALID,0,INVALID,131.43,VALID,0,VALID,22.6597,VALID,72,VALID,0,
2014-10-16, 01:19:04,VALID,1010.26,VALID,0,INVALID,131.384,VALID,0,VALID,22.6614,VALID,72,VALID,0,
2014-10-16, 01:20:04,VALID,1010.28,VALID,0,INVALID,131.399,VALID,0,VALID,22.6614,VALID,72,VALID,0,
2014-10-16, 01:21:04,VALID,1010.24,VALID,0,INVALID,131.262,VALID,0,VALID,22.6809,VALID,72,VALID,0,
2014-10-16, 01:22:04,VALID,1010.23,VALID,0,INVALID,131.254,VALID,0.112112,VALID,22.6809,VALID,72,VALID,0,
2014-10-16, 01:23:04,VALID,1010.2,VALID,0,INVALID,131.232,VALID,0,VALID,22.6809,VALID,72,VALID,0,
2014-10-16, 01:24:04,VALID,1010.21,VALID,0,INVALID,131.193,VALID,0,VALID,22.6614,VALID,72,VALID,0,
2014-10-16, 01:25:04,VALID,1010.2,VALID,0,INVALID,131.171,VALID,0,VALID,22.6809,VALID,72,VALID,0,
2014-10-16, 01:26:04,VALID,1010.16,VALID,0,INVALID,131.087,VALID,0,VALID,22.6809,VALID,72,VALID,0,
2014-10-16, 01:27:04,VALID,1010.15,VALID,0,INVALID,131.026,VALID,0,VALID,22.6614,VALID,72,VALID,0,
2014-10-16, 01:28:04,VALID,1010.16,VALID,0,INVALID,130.934,VALID,0,VALID,22.6826,VALID,72,VALID,0,
2014-10-16, 01:29:04,VALID,1010.12,VALID,0,INVALID,130.927,VALID,0,VALID,22.6614,VALID,72,VALID,0,
2014-10-16, 01:30:04,VALID,1010.15,VALID,0,INVALID,130.911,VALID,0,VALID,22.6614,VALID,72,VALID,0,
2014-10-16, 01:31:04,VALID,1010.12,VALID,0,INVALID,130.873,VALID,0,VALID,22.642,VALID,72,VALID,0,
2014-10-16, 01:32:04,VALID,1010.12,VALID,0,INVALID,130.858,VALID,0,VALID,22.642,VALID,72,VALID,0,
2014-10-16, 01:33:04,VALID,1010.12,VALID,0,INVALID,130.789,VALID,0,VALID,22.642,VALID,72,VALID,0,
2014-10-16, 01:34:04,VALID,1010.12,VALID,0,INVALID,130.774,VALID,0,VALID,22.642,VALID,72,VALID,0,
2014-10-16, 01:35:04,VALID,1010.13,VALID,0,INVALID,130.705,VALID,0,VALID,22.642,VALID,72,VALID,0,
2014-10-16, 01:36:04,VALID,1010.12,VALID,0,INVALID,130.698,VALID,0,VALID,22.642,VALID,72,VALID,0,
2014-10-16, 01:37:04,VALID,1010.1,VALID,0,INVALID,130.667,VALID,0.112112,VALID,22.6225,VALID,72,VALID,0,
2014-10-16, 01:38:04,VALID,1010.11,VALID,0,INVALID,130.622,VALID,0.112112,VALID,22.642,VALID,72,VALID,0,
2014-10-16, 01:39:04,VALID,1010.06,VALID,0,INVALID,130.591,VALID,0,VALID,22.642,VALID,72,VALID,0,
2014-10-16, 01:40:04,VALID,1010.05,VALID,0,INVALID,130.545,VALID,0,VALID,22.642,VALID,72,VALID,0,
2014-10-16, 01:41:04,VALID,1010.01,VALID,0,INVALID,130.5,VALID,0.112112,VALID,22.642,VALID,72,VALID,0,
2014-10-16, 01:42:04,VALID,1010,VALID,0,INVALID,130.507,VALID,0,VALID,22.6225,VALID,72,VALID,0,
2014-10-16, 01:43:04,VALID,1010.01,VALID,0,INVALID,130.469,VALID,0.112112,VALID,22.6225,VALID,72,VALID,0,
2014-10-16, 01:44:04,VALID,1010.01,VALID,0,INVALID,130.431,VALID,0,VALID,22.6013,VALID,72,VALID,0,
2014-10-16, 01:45:04,VALID,1010.01,VALID,0,INVALID,130.393,VALID,0,VALID,22.6225,VALID,72,VALID,0,
2014-10-16, 01:46:04,VALID,1010,VALID,0,INVALID,130.362,VALID,0.112112,VALID,22.603,VALID,72,VALID,0,
2014-10-16, 01:47:04,VALID,1009.98,VALID,0,INVALID,130.324,VALID,0.112112,VALID,22.603,VALID,72,VALID,0,
2014-10-16, 01:48:04,VALID,1009.99,VALID,0,INVALID,130.278,VALID,0,VALID,22.5835,VALID,72,VALID,0,
2014-10-16, 01:49:04,VALID,1009.99,VALID,0,INVALID,130.217,VALID,0,VALID,22.603,VALID,72,VALID,0,
2014-10-16, 01:50:04,VALID,1010.01,VALID,0,INVALID,130.126,VALID,0,VALID,22.603,VALID,72,VALID,0,
2014-10-16, 01:51:04,VALID,1010,VALID,0,INVALID,130.072,VALID,0,VALID,22.6047,VALID,72,VALID,0,
2014-10-16, 01:52:04,VALID,1010,VALID,0,INVALID,130.065,VALID,0,VALID,22.6225,VALID,72,VALID,0,
2014-10-16, 01:53:04,VALID,1009.99,VALID,0,INVALID,129.989,VALID,0.112112,VALID,22.6437,VALID,72,VALID,0,
2014-10-16, 01:54:04,VALID,1010.01,VALID,0,INVALID,129.996,VALID,0,VALID,22.603,VALID,72,VALID,0,
2014-10-16, 01:55:04,VALID,1010.01,VALID,0,INVALID,129.973,VALID,0,VALID,22.6242,VALID,72,VALID,0,
2014-10-16, 01:56:04,VALID,1009.99,VALID,0,INVALID,129.943,VALID,0,VALID,22.6225,VALID,72,VALID,0,
2014-10-16, 01:57:04,VALID,1010,VALID,0,INVALID,129.912,VALID,0,VALID,22.6225,VALID,72,VALID,0,
2014-10-16, 01:58:04,VALID,1010.04,VALID,0,INVALID,129.889,VALID,0,VALID,22.6225,VALID,72,VALID,0,
2014-10-16, 01:59:04,VALID,1010.02,VALID,0,INVALID,129.882,VALID,0,VALID,22.6225,VALID,72,VALID,0,
2014-10-16, 02:00:04,VALID,1010.05,VALID,0,INVALID,129.806,VALID,0,VALID,22.6225,VALID,72,VALID,0,
2014-10-16, 02:01:04,VALID,1010.06,VALID,0,INVALID,129.745,VALID,0,VALID,22.6437,VALID,72,VALID,0,
2014-10-16, 02:02:04,VALID,1010.09,VALID,0,INVALID,129.729,VALID,0,VALID,22.6437,VALID,72,VALID,0,
2014-10-16, 02:03:04,VALID,1010.08,VALID,0,INVALID,129.668,VALID,0,VALID,22.6225,VALID,72,VALID,0,
2014-10-16, 02:04:04,VALID,1010.05,VALID,0,INVALID,129.691,VALID,0,VALID,22.6242,VALID,72,VALID,0,
2014-10-16, 02:05:04,VALID,1010.04,VALID,0,INVALID,129.638,VALID,0,VALID,22.6225,VALID,72,VALID,0,
2014-10-16, 02:06:04,VALID,1010.03,VALID,0,INVALID,129.584,VALID,0,VALID,22.6242,VALID,72,VALID,0,
2014-10-16, 02:07:04,VALID,1010.03,VALID,0,INVALID,129.478,VALID,0,VALID,22.6632,VALID,72,VALID,0,
2014-10-16, 02:08:04,VALID,1010.01,VALID,0,INVALID,129.379,VALID,0,VALID,22.6632,VALID,72,VALID,0,
2014-10-16, 02:09:04,VALID,1010.04,VALID,0,INVALID,129.371,VALID,0,VALID,22.642,VALID,72,VALID,0,
2014-10-16, 02:10:04,VALID,1010.04,VALID,0,INVALID,129.356,VALID,0,VALID,22.642,VALID,72,VALID,0,
2014-10-16, 02:11:04,VALID,1010.03,VALID,0,INVALID,129.333,VALID,0,VALID,22.642,VALID,72,VALID,0,
2014-10-16, 02:12:04,VALID,1010.05,VALID,0,INVALID,129.295,VALID,0,VALID,22.6614,VALID,72,VALID,0,
2014-10-16, 02:13:04,VALID,1010.03,VALID,0,INVALID,129.249,VALID,0,VALID,22.6614,VALID,72,VALID,0,
2014-10-16, 02:14:04,VALID,1010.02,VALID,0,INVALID,129.279,VALID,0,VALID,22.6614,VALID,72,VALID,0,
2014-10-16, 02:15:04,VALID,1010.02,VALID,0,INVALID,129.264,VALID,0,VALID,22.6614,VALID,72,VALID,0,
2014-10-16, 02:16:04,VALID,1010.01,VALID,0,INVALID,129.264,VALID,0,VALID,22.6614,VALID,72,VALID,0,
2014-10-16, 02:17:04,VALID,1010,VALID,0,INVALID,129.264,VALID,0,VALID,22.6614,VALID,72,VALID,0,
2014-10-16, 02:18:04,VALID,1009.99,VALID,0,INVALID,129.188,VALID,0,VALID,22.6614,VALID,72,VALID,0,
2014-10-16, 02:19:04,VALID,1010,VALID,0,INVALID,129.18,VALID,0,VALID,22.6614,VALID,72,VALID,0,
2014-10-16, 02:20:04,VALID,1010.02,VALID,0,INVALID,129.226,VALID,0,VALID,22.6614,VALID,72,VALID,0,
2014-10-16, 02:21:04,VALID,1010.01,VALID,0,INVALID,129.241,VALID,0,VALID,22.6632,VALID,72,VALID,0,
2014-10-16, 02:22:04,VALID,1009.98,VALID,0,INVALID,129.272,VALID,0,VALID,22.6826,VALID,72,VALID,0,
2014-10-16, 02:23:04,VALID,1010.01,VALID,0,INVALID,129.272,VALID,0,VALID,22.642,VALID,72,VALID,0,
2014-10-16, 02:24:04,VALID,1010.02,VALID,0,INVALID,129.302,VALID,0,VALID,22.6437,VALID,72,VALID,0,
2014-10-16, 02:25:04,VALID,1010.01,VALID,0,INVALID,129.295,VALID,0,VALID,22.642,VALID,72,VALID,0,
2014-10-16, 02:26:04,VALID,1010.03,VALID,0,INVALID,129.279,VALID,0.112112,VALID,22.642,VALID,72,VALID,0,
2014-10-16, 02:27:04,VALID,1010.01,VALID,0,INVALID,129.257,VALID,0,VALID,22.642,VALID,72,VALID,0,
2014-10-16, 02:28:04,VALID,1010.02,VALID,0,INVALID,129.279,VALID,0,VALID,22.6632,VALID,72,VALID,0,
2014-10-16, 02:29:04,VALID,1010.04,VALID,0,INVALID,129.302,VALID,0,VALID,22.6632,VALID,72,VALID,0,
2014-10-16, 02:30:04,VALID,1010.03,VALID,0,INVALID,129.249,VALID,0,VALID,22.6614,VALID,72,VALID,0,
2014-10-16, 02:31:04,VALID,1010.03,VALID,0,INVALID,129.218,VALID,0,VALID,22.7021,VALID,72,VALID,0,
2014-10-16, 02:32:04,VALID,1010.04,VALID,0,INVALID,129.15,VALID,0,VALID,22.6809,VALID,72,VALID,0,
2014-10-16, 02:33:04,VALID,1010.05,VALID,0,INVALID,129.173,VALID,0,VALID,22.7004,VALID,72,VALID,0,
2014-10-16, 02:34:04,VALID,1010.06,VALID,0,INVALID,129.157,VALID,0,VALID,22.7021,VALID,72,VALID,0,
2014-10-16, 02:35:04,VALID,1010.06,VALID,0,INVALID,129.249,VALID,0,VALID,22.6614,VALID,72,VALID,0,
2014-10-16, 02:36:04,VALID,1010.08,VALID,0,INVALID,129.348,VALID,0,VALID,22.6614,VALID,72,VALID,0,
2014-10-16, 02:37:04,VALID,1010.1,VALID,0,INVALID,129.371,VALID,0,VALID,22.642,VALID,72,VALID,0,
2014-10-16, 02:38:04,VALID,1010.14,VALID,0,INVALID,129.379,VALID,0,VALID,22.6632,VALID,72,VALID,0,
2014-10-16, 02:39:04,VALID,1010.15,VALID,0,INVALID,129.401,VALID,0,VALID,22.6614,VALID,72,VALID,0,
2014-10-16, 02:40:04,VALID,1010.18,VALID,0,INVALID,129.394,VALID,0,VALID,22.6614,VALID,72,VALID,0,
2014-10-16, 02:41:04,VALID,1010.2,VALID,0,INVALID,129.386,VALID,0,VALID,22.642,VALID,72,VALID,0,
2014-10-16, 02:42:04,VALID,1010.23,VALID,0,INVALID,129.417,VALID,0,VALID,22.642,VALID,72,VALID,0,
2014-10-16, 02:43:04,VALID,1010.24,VALID,0,INVALID,129.47,VALID,0,VALID,22.642,VALID,72,VALID,0,
2014-10-16, 02:44:04,VALID,1010.24,VALID,0,INVALID,129.47,VALID,0,VALID,22.6225,VALID,72,VALID,0,
2014-10-16, 02:45:04,VALID,1010.24,VALID,0,INVALID,129.516,VALID,0,VALID,22.6437,VALID,72,VALID,0,
2014-10-16, 02:46:04,VALID,1010.25,VALID,0,INVALID,129.531,VALID,0,VALID,22.642,VALID,72,VALID,0,
2014-10-16, 02:47:04,VALID,1010.23,VALID,0,INVALID,129.554,VALID,0,VALID,22.6225,VALID,72,VALID,0,
2014-10-16, 02:48:04,VALID,1010.24,VALID,0,INVALID,129.63,VALID,0,VALID,22.6225,VALID,72,VALID,0,
2014-10-16, 02:49:04,VALID,1010.21,VALID,0,INVALID,129.684,VALID,0,VALID,22.6242,VALID,72,VALID,0,
2014-10-16, 02:50:04,VALID,1010.21,VALID,0,INVALID,129.813,VALID,0,VALID,22.5835,VALID,72,VALID,0,
2014-10-16, 02:51:04,VALID,1010.21,VALID,0,INVALID,129.912,VALID,0,VALID,22.5852,VALID,72,VALID,0,
2014-10-16, 02:52:04,VALID,1010.17,VALID,0,INVALID,129.889,VALID,0,VALID,22.564,VALID,72,VALID,0,
2014-10-16, 02:53:04,VALID,1010.19,VALID,0,INVALID,129.889,VALID,0,VALID,22.564,VALID,72,VALID,0,
2014-10-16, 02:54:04,VALID,1010.18,VALID,0,INVALID,129.859,VALID,0,VALID,22.564,VALID,72,VALID,0,
2014-10-16, 02:55:04,VALID,1010.17,VALID,0,INVALID,129.867,VALID,0,VALID,22.564,VALID,72,VALID,0,
2014-10-16, 02:56:04,VALID,1010.16,VALID,0,INVALID,129.844,VALID,0,VALID,22.564,VALID,72,VALID,0,
2014-10-16, 02:57:04,VALID,1010.15,VALID,0,INVALID,129.821,VALID,0,VALID,22.5852,VALID,72,VALID,0,
2014-10-16, 02:58:04,VALID,1010.13,VALID,0,INVALID,129.783,VALID,0,VALID,22.5835,VALID,72,VALID,0,
2014-10-16, 02:59:04,VALID,1010.09,VALID,0,INVALID,129.767,VALID,0,VALID,22.5835,VALID,72,VALID,0,
2014-10-16, 03:00:04,VALID,1010.08,VALID,0,INVALID,129.752,VALID,0,VALID,22.5835,VALID,72,VALID,0,
2014-10-16, 03:01:04,VALID,1010.06,VALID,0,INVALID,129.752,VALID,0,VALID,22.5835,VALID,72,VALID,0,
2014-10-16, 03:02:04,VALID,1010.04,VALID,0,INVALID,129.798,VALID,0,VALID,22.5623,VALID,72,VALID,0,
2014-10-16, 03:03:04,VALID,1010.04,VALID,0,INVALID,129.806,VALID,0,VALID,22.5835,VALID,72,VALID,0,
2014-10-16, 03:04:04,VALID,1010.01,VALID,0,INVALID,129.79,VALID,0,VALID,22.5835,VALID,72,VALID,0,
2014-10-16, 03:05:04,VALID,1009.99,VALID,0,INVALID,129.798,VALID,0,VALID,22.5835,VALID,72,VALID,0,
2014-10-16, 03:06:04,VALID,1009.98,VALID,0,INVALID,129.775,VALID,0,VALID,22.5835,VALID,72,VALID,0,
2014-10-16, 03:07:04,VALID,1009.97,VALID,0,INVALID,129.828,VALID,0,VALID,22.564,VALID,72,VALID,0,
2014-10-16, 03:08:04,VALID,1009.97,VALID,0,INVALID,129.912,VALID,0,VALID,22.5446,VALID,72,VALID,0,
2014-10-16, 03:09:04,VALID,1009.94,VALID,0,INVALID,129.943,VALID,0,VALID,22.5463,VALID,72,VALID,0,
2014-10-16, 03:10:04,VALID,1009.93,VALID,0,INVALID,130.011,VALID,0,VALID,22.5251,VALID,72,VALID,0,
2014-10-16, 03:11:04,VALID,1009.93,VALID,0,INVALID,130.042,VALID,0,VALID,22.5056,VALID,72,VALID,0,
2014-10-16, 03:12:04,VALID,1009.92,VALID,0,INVALID,130.111,VALID,0,VALID,22.4861,VALID,72,VALID,0,
2014-10-16, 03:13:04,VALID,1009.92,VALID,0,INVALID,130.164,VALID,0,VALID,22.4861,VALID,72,VALID,0,
2014-10-16, 03:14:04,VALID,1009.94,VALID,0,INVALID,130.248,VALID,0,VALID,22.4667,VALID,72,VALID,0,
2014-10-16, 03:15:04,VALID,1009.95,VALID,0,INVALID,130.248,VALID,0,VALID,22.4667,VALID,72,VALID,0,
2014-10-16, 03:16:04,VALID,1009.95,VALID,0,INVALID,130.225,VALID,0,VALID,22.4878,VALID,72,VALID,0,
2014-10-16, 03:17:04,VALID,1009.99,VALID,0,INVALID,130.179,VALID,0,VALID,22.4667,VALID,72,VALID,0,
2014-10-16, 03:18:04,VALID,1009.99,VALID,0,INVALID,130.111,VALID,0,VALID,22.4667,VALID,72,VALID,0,
2014-10-16, 03:19:04,VALID,1009.97,VALID,0,INVALID,130.072,VALID,0,VALID,22.465,VALID,72,VALID,0,
2014-10-16, 03:20:04,VALID,1009.99,VALID,0,INVALID,130.034,VALID,0,VALID,22.4878,VALID,72,VALID,0,
2014-10-16, 03:21:04,VALID,1010,VALID,0,INVALID,129.989,VALID,0,VALID,22.4667,VALID,72,VALID,0,
2014-10-16, 03:22:04,VALID,1010.01,VALID,0,INVALID,129.935,VALID,0.112112,VALID,22.5073,VALID,72,VALID,0,
2014-10-16, 03:23:04,VALID,1010,VALID,0,INVALID,129.996,VALID,0,VALID,22.4861,VALID,72,VALID,0,
2014-10-16, 03:24:04,VALID,1010.02,VALID,0,INVALID,129.981,VALID,0,VALID,22.4861,VALID,72,VALID,0,
2014-10-16, 03:25:04,VALID,1010,VALID,0,INVALID,129.989,VALID,0,VALID,22.4667,VALID,72,VALID,0,
2014-10-16, 03:26:04,VALID,1010.02,VALID,0,INVALID,130.034,VALID,0,VALID,22.4472,VALID,72,VALID,0,
2014-10-16, 03:27:04,VALID,1009.98,VALID,0,INVALID,130.088,VALID,0,VALID,22.4472,VALID,72,VALID,0,
2014-10-16, 03:28:04,VALID,1009.99,VALID,0,INVALID,130.042,VALID,0,VALID,22.4667,VALID,72,VALID,0,
2014-10-16, 03:29:04,VALID,1009.99,VALID,0,INVALID,130.019,VALID,0,VALID,22.4472,VALID,72,VALID,0,
2014-10-16, 03:30:04,VALID,1009.96,VALID,0,INVALID,130.011,VALID,0,VALID,22.4472,VALID,72,VALID,0,
2014-10-16, 03:31:04,VALID,1009.95,VALID,0,INVALID,130.034,VALID,0,VALID,22.4277,VALID,72,VALID,0,
2014-10-16, 03:32:04,VALID,1009.94,VALID,0,INVALID,130.034,VALID,0,VALID,22.4472,VALID,72,VALID,0,
2014-10-16, 03:33:04,VALID,1009.93,VALID,0,INVALID,130.027,VALID,0,VALID,22.4277,VALID,72,VALID,0,
2014-10-16, 03:34:04,VALID,1009.93,VALID,0,INVALID,130.05,VALID,0,VALID,22.4277,VALID,72,VALID,0,
2014-10-16, 03:35:04,VALID,1009.95,VALID,0,INVALID,130.118,VALID,0,VALID,22.4277,VALID,72,VALID,0,
2014-10-16, 03:36:04,VALID,1009.94,VALID,0,INVALID,130.118,VALID,0,VALID,22.4277,VALID,72,VALID,0,
2014-10-16, 03:37:04,VALID,1009.88,VALID,0,INVALID,130.057,VALID,0,VALID,22.4277,VALID,72,VALID,0,
2014-10-16, 03:38:04,VALID,1009.91,VALID,0,INVALID,130.065,VALID,0.112112,VALID,22.4294,VALID,72,VALID,0,
2014-10-16, 03:39:04,VALID,1009.91,VALID,0,INVALID,130.034,VALID,0.112112,VALID,22.4082,VALID,72,VALID,0,
2014-10-16, 03:40:04,VALID,1009.9,VALID,0,INVALID,130.019,VALID,0,VALID,22.4082,VALID,72,VALID,0,
2014-10-16, 03:41:04,VALID,1009.91,VALID,0,INVALID,129.966,VALID,0,VALID,22.4082,VALID,72,VALID,0,
2014-10-16, 03:42:04,VALID,1009.92,VALID,0,INVALID,129.95,VALID,0,VALID,22.4082,VALID,72,VALID,0,
2014-10-16, 03:43:04,VALID,1009.92,VALID,0,INVALID,129.92,VALID,0,VALID,22.4082,VALID,72,VALID,0,
2014-10-16, 03:44:04,VALID,1009.93,VALID,0,INVALID,129.889,VALID,0,VALID,22.4277,VALID,72,VALID,0,
2014-10-16, 03:45:04,VALID,1009.93,VALID,0,INVALID,129.844,VALID,0,VALID,22.4277,VALID,72,VALID,0,
2014-10-16, 03:46:04,VALID,1009.93,VALID,0,INVALID,129.783,VALID,0,VALID,22.4472,VALID,72,VALID,0,
2014-10-16, 03:47:04,VALID,1009.94,VALID,0,INVALID,129.798,VALID,0,VALID,22.4489,VALID,72,VALID,0,
2014-10-16, 03:48:04,VALID,1009.94,VALID,0,INVALID,129.767,VALID,0,VALID,22.4489,VALID,72,VALID,0,
2014-10-16, 03:49:04,VALID,1009.95,VALID,0,INVALID,129.745,VALID,0,VALID,22.4277,VALID,72,VALID,0,
2014-10-16, 03:50:04,VALID,1009.94,VALID,0,INVALID,129.79,VALID,0,VALID,22.4489,VALID,72,VALID,0,
2014-10-16, 03:51:04,VALID,1009.95,VALID,0,INVALID,129.79,VALID,0,VALID,22.4294,VALID,72,VALID,0,
2014-10-16, 03:52:04,VALID,1009.97,VALID,0,INVALID,129.813,VALID,0,VALID,22.4082,VALID,72,VALID,0,
2014-10-16, 03:53:04,VALID,1009.95,VALID,0,INVALID,129.79,VALID,0,VALID,22.4082,VALID,72,VALID,0,
2014-10-16, 03:54:04,VALID,1009.94,VALID,0,INVALID,129.828,VALID,0,VALID,22.4082,VALID,72,VALID,0,
2014-10-16, 03:55:04,VALID,1009.95,VALID,0,INVALID,129.813,VALID,0,VALID,22.4082,VALID,72,VALID,0,
2014-10-16, 03:56:04,VALID,1009.98,VALID,0,INVALID,129.821,VALID,0,VALID,22.3887,VALID,72,VALID,0,